Location: Aiyede
(8.4833°N, 4.4500°E)
Time: 16:58:24
(UTC+00:00)

N. Korean satellite - Visible Passes

Search period start: 25 November 2020 00:00
Search period end: 05 December 2020 00:00
Orbit: 452 x 504 km, 97.2° (Epoch: 24 November)

Date Brightness Start Highest point End Pass type
(mag) Time Alt. Az. Time Alt. Az. Time Alt. Az.
26 Nov 6.5 04:56:25 10° N 05:00:03 82° W 05:03:44 10° SSW visible
27 Nov 8.4 04:30:31 10° NE 04:33:50 34° E 04:37:12 10° SSE visible
28 Nov 10.0 04:05:47 10° ENE 04:07:37 13° E 04:09:27 10° SE visible
29 Nov 6.9 05:11:01 10° N 05:14:31 44° W 05:18:02 10° SSW visible
30 Nov 7.2 04:44:40 10° NNE 04:48:17 62° E 04:51:56 10° S visible
01 Dec 9.3 04:19:07 10° NE 04:22:03 22° E 04:24:58 10° SSE visible
03 Dec 6.5 04:59:00 10° N 05:02:39 72° W 05:06:20 10° SSW visible
04 Dec 8.2 04:32:57 10° NNE 04:36:24 38° E 04:39:51 10° S visible
